Date String (YYYY-MM-DD hh:mm:ss) UTC,Instrument flags,Ambient pressure (hPa),Sample flow (lpm),Bypass flow (lpm),Sample temperature (°C),Ambient temperature (°C),ASC tube jacket temperature (°C),LED temperature (°C),Box temperature (°C),Sample RH (%),Span deviation,Mass concentration (μg/m³),Mass concentration (μg/m³),Mass concentration (μg/m³)
DateTimeUTC,F1_M11,P_M11,Q1_M11,Q2_M11,T1_M11,T2_M11,T3_M11,T4_M11,T5_M11,U1_M11,ZSPAN_M11,X0_M11,X2_M11,X1_M11
2023-02-27 23:00:00,,0815.7,5.00,0.00,22.1,20.7,00.0,30.9,23.8,08.7,0000.0,0002.54,0000.60,0000.28
2023-02-27 23:01:00,,0815.8,5.01,0.00,22.1,20.6,00.0,30.9,23.8,08.8,0000.0,0002.53,0000.60,0000.28
2023-02-27 23:02:00,,0815.8,4.99,0.00,22.1,20.6,00.0,30.9,23.8,08.7,0000.0,0002.54,0000.61,0000.29
2023-02-27 23:03:00,,0815.8,5.00,0.00,22.1,20.6,00.0,30.9,23.8,08.8,0000.0,0002.54,0000.60,0000.28
2023-02-27 23:04:00,,0815.7,5.01,0.00,22.1,20.6,00.0,30.9,23.8,08.8,0000.0,0002.51,0000.58,0000.28
2023-02-27 23:05:00,,0815.9,5.00,0.00,22.1,20.6,00.0,30.9,23.8,08.5,0000.0,0002.48,0000.57,0000.28
2023-02-27 23:06:00,,0815.9,4.99,0.00,22.1,20.6,00.0,30.9,23.8,08.8,0000.0,0002.44,0000.56,0000.28
2023-02-27 23:07:00,,0815.5,5.00,0.00,22.0,20.6,00.0,30.8,23.8,08.9,0000.0,0002.55,0000.62,0000.28
2023-02-27 23:08:00,,0815.4,5.00,0.00,22.0,20.5,00.0,30.8,23.8,08.8,0000.0,0002.48,0000.69,0000.29
2023-02-27 23:09:00,,0815.6,5.00,0.00,22.0,20.5,00.0,30.8,23.8,08.8,0000.0,0001.28,0000.62,0000.28
2023-02-27 23:10:00,,0815.6,5.00,0.00,22.0,20.6,00.0,30.8,23.8,08.6,0000.0,0001.11,0000.59,0000.29
2023-02-27 23:11:00,,0815.5,5.00,0.00,22.0,20.6,00.0,30.8,23.8,08.8,0000.0,0001.25,0000.64,0000.29
2023-02-27 23:12:00,,0815.8,4.99,0.00,22.0,20.6,00.0,30.8,23.8,08.6,0000.0,0001.38,0000.68,0000.29
2023-02-27 23:13:00,,0815.7,4.99,0.00,22.0,20.6,00.0,30.8,23.8,08.7,0000.0,0001.35,0000.67,0000.29
2023-02-27 23:14:00,,0815.7,5.01,0.00,22.0,20.5,00.0,30.8,23.7,08.8,0000.0,0001.38,0000.68,0000.30
2023-02-27 23:15:00,,0815.5,5.01,0.00,22.0,20.6,00.0,30.8,23.8,08.8,0000.0,0001.46,0000.71,0000.30
2023-02-27 23:16:00,,0815.6,5.00,0.00,22.0,20.6,00.0,30.8,23.8,08.7,0000.0,0001.64,0000.77,0000.30
2023-02-27 23:17:00,,0815.8,4.99,0.00,22.0,20.6,00.0,30.8,23.8,08.7,0000.0,0001.81,0000.78,0000.30
2023-02-27 23:18:00,,0815.8,4.99,0.00,22.0,20.5,00.0,30.8,23.7,08.8,0000.0,0001.78,0000.75,0000.29
2023-02-27 23:19:00,,0815.6,4.99,0.00,22.0,20.6,00.0,30.8,23.7,08.9,0000.0,0001.89,0000.68,0000.29
2023-02-27 23:20:00,,0815.6,4.99,0.00,22.0,21.0,00.0,30.8,23.9,08.8,0000.0,0001.86,0000.63,0000.29
2023-02-27 23:21:00,,0815.5,5.00,0.00,22.1,22.2,00.0,30.8,24.2,08.9,0000.0,0001.80,0000.62,0000.28
2023-02-27 23:22:00,,0815.6,4.97,0.00,22.3,22.9,00.0,30.8,24.4,08.7,0000.0,0001.75,0000.60,0000.28
2023-02-27 23:23:00,,0815.7,4.98,0.00,22.4,22.6,00.0,30.9,24.4,08.6,0000.0,0002.27,0000.56,0000.27
2023-02-27 23:24:00,,0816.1,5.00,0.00,22.4,22.2,00.0,30.9,24.3,08.6,0000.0,0003.04,0000.58,0000.28
2023-02-27 23:25:00,,0815.7,5.01,0.00,22.4,21.9,00.0,30.9,24.3,08.7,0000.0,0003.03,0000.57,0000.27
2023-02-27 23:26:00,,0815.8,5.01,0.00,22.4,21.6,00.0,30.9,24.2,08.7,0000.0,0003.03,0000.58,0000.28
2023-02-27 23:27:00,,0815.8,5.00,0.00,22.4,21.4,00.0,31.0,24.2,08.8,0000.0,0002.90,0000.53,0000.28
2023-02-27 23:28:00,,0815.8,5.00,0.00,22.4,21.2,00.0,31.0,24.1,08.7,0000.0,0002.73,0000.52,0000.28
2023-02-27 23:29:00,,0815.5,5.00,0.00,22.4,21.1,00.0,31.0,24.1,08.5,0000.0,0002.68,0000.52,0000.29
2023-02-27 23:30:00,,0815.5,5.01,0.00,22.3,21.0,00.0,31.0,24.1,08.7,0000.0,0002.47,0000.52,0000.30
2023-02-27 23:31:00,,0815.9,4.99,0.00,22.3,20.9,00.0,31.0,24.0,08.7,0000.0,0002.90,0000.51,0000.30
2023-02-27 23:32:00,,0815.8,5.01,0.00,22.3,20.9,00.0,31.0,24.0,08.7,0000.0,0002.94,0000.52,0000.30
2023-02-27 23:33:00,,0815.9,5.00,0.00,22.3,20.8,00.0,31.0,24.0,08.8,0000.0,0002.85,0000.49,0000.31
2023-02-27 23:34:00,,0815.8,4.99,0.00,22.3,20.8,00.0,31.0,24.0,08.8,0000.0,0002.39,0000.50,0000.31
2023-02-27 23:35:00,,0815.9,5.00,0.00,22.3,20.7,00.0,31.0,24.0,08.8,0000.0,0001.56,0000.54,0000.31
2023-02-27 23:36:00,,0816.1,5.01,0.00,22.2,20.7,00.0,31.0,24.0,08.9,0000.0,0001.64,0000.56,0000.31
2023-02-27 23:37:00,,0815.8,5.00,0.00,22.2,20.7,00.0,31.0,24.0,08.9,0000.0,0001.74,0000.58,0000.32
2023-02-27 23:38:00,,0816.0,5.01,0.00,22.2,20.7,00.0,31.0,23.9,08.8,0000.0,0001.82,0000.58,0000.32
2023-02-27 23:39:00,,0815.9,5.00,0.00,22.2,20.7,00.0,31.0,23.9,09.0,0000.0,0001.90,0000.62,0000.32
2023-02-27 23:40:00,,0816.0,4.99,0.00,22.2,20.6,00.0,31.0,23.9,08.8,0000.0,0001.88,0000.61,0000.32
2023-02-27 23:41:00,,0816.1,4.99,0.00,22.2,20.6,00.0,30.9,23.9,08.9,0000.0,0001.91,0000.61,0000.32
2023-02-27 23:42:00,,0816.0,4.99,0.00,22.2,20.6,00.0,30.9,23.9,08.8,0000.0,0001.50,0000.63,0000.31
2023-02-27 23:43:00,,0816.0,5.01,0.00,22.1,20.6,00.0,30.9,23.9,08.7,0000.0,0001.36,0000.61,0000.31
2023-02-27 23:44:00,,0816.0,4.99,0.00,22.1,20.5,00.0,30.9,23.9,08.8,0000.0,0001.39,0000.63,0000.31
2023-02-27 23:45:00,,0816.0,5.00,0.00,22.1,20.5,00.0,30.9,23.8,08.9,0000.0,0001.37,0000.61,0000.30
2023-02-27 23:46:00,,0815.9,4.99,0.00,22.1,20.5,00.0,30.9,23.8,08.8,0000.0,0001.30,0000.58,0000.30
2023-02-27 23:47:00,,0816.1,4.99,0.00,22.1,20.5,00.0,30.9,23.8,08.8,0000.0,0001.26,0000.57,0000.30
2023-02-27 23:48:00,,0816.1,5.01,0.00,22.1,20.5,00.0,30.9,23.8,09.0,0000.0,0001.16,0000.55,0000.30
2023-02-27 23:49:00,,0816.0,5.00,0.00,22.1,20.5,00.0,30.9,23.8,09.0,0000.0,0001.62,0000.53,0000.29
2023-02-27 23:50:00,,0816.0,5.00,0.00,22.1,20.5,00.0,30.9,23.8,08.8,0000.0,0002.06,0000.51,0000.29
2023-02-27 23:51:00,,0816.0,5.00,0.00,22.1,20.5,00.0,30.9,23.8,08.8,0000.0,0002.14,0000.52,0000.29
2023-02-27 23:52:00,,0816.0,5.00,0.00,22.0,20.6,00.0,30.9,23.8,08.9,0000.0,0002.12,0000.54,0000.29
2023-02-27 23:53:00,,0815.9,5.00,0.00,22.0,20.5,00.0,30.9,23.8,08.7,0000.0,0002.16,0000.56,0000.30
2023-02-27 23:54:00,,0816.0,5.00,0.00,22.0,20.5,00.0,30.8,23.8,08.8,0000.0,0002.23,0000.59,0000.30
2023-02-27 23:55:00,,0815.7,5.00,0.00,22.0,20.5,00.0,30.8,23.7,08.7,0000.0,0002.21,0000.58,0000.30
2023-02-27 23:56:00,,0815.5,5.00,0.00,22.0,20.5,00.0,30.8,23.8,08.6,0000.0,0002.25,0000.59,0000.31
2023-02-27 23:57:00,,0815.5,4.99,0.00,22.0,20.5,00.0,30.8,23.8,08.6,0000.0,0002.24,0000.60,0000.31
2023-02-27 23:58:00,,0815.4,5.00,0.00,22.0,20.5,00.0,30.8,23.8,08.8,0000.0,0002.24,0000.59,0000.31
2023-02-27 23:59:00,,0815.4,5.00,0.00,22.0,20.5,00.0,30.8,23.7,08.7,0000.0,0002.20,0000.58,0000.30
